Terminal Aerodrome Forecast
Issued by NWS

Home | Current Version | Previous Version | Text Only | Print | Product List | Glossary On
Versions: 1 2 3 4 5 6 7 8 9 10 11 12 13 14 15 16 17
000
FTUS46 KSEW 270500
TAFPAE
TAF
KPAE 270539Z 2706/2806 00000KT P6SM FEW080 BKN100
     FM271200 00000KT P6SM BKN015 BKN050
     FM271700 32006KT P6SM SCT050=

USA.gov is the U.S. government's official web portal to all federal, state and local government web resources and services.